KH6HHG Weather Reports


Display with metric or nautical units.
time (UTC)temp
F
wind
direction
speed
MPH
gust
MPH
rain 1hr
in
rain 24hr
in
rain mn
in
humidity
%
barometer
mb
20180222224023 74 246 0.0 0.0 0.00 0.00 0.00 80 1014.1
20180222223523 74 246 0.0 0.0 0.00 0.00 0.00 80 1014.2
20180222223023 74 246 0.0 0.0 0.00 0.00 0.00 81 1014.3
20180222222524 74 246 0.0 0.0 0.00 0.00 0.00 82 1014.4
20180222222024 73 246 0.0 0.0 0.00 0.00 0.00 83 1014.4
20180222221524 73 246 0.0 0.0 0.00 0.00 0.00 86 1014.4
20180222221023 73 246 0.0 0.0 0.00 0.00 0.00 84 1014.6
20180222220523 73 246 0.0 0.0 0.00 0.00 0.00 83 1014.6
20180222220023 73 246 0.0 0.0 0.00 0.00 0.00 84 1014.8
20180222215523 73 246 0.0 0.0 0.00 0.00 0.00 84 1014.9
20180222215023 72 246 0.0 0.0 0.00 0.00 0.00 84 1014.9
20180222214524 72 246 0.0 0.0 0.00 0.00 0.00 84 1014.9
20180222214024 72 246 0.0 0.0 0.00 0.00 0.00 84 1014.9
20180222213524 72 246 0.0 0.0 0.00 0.00 0.00 85 1014.9
20180222213024 72 246 0.0 0.0 0.00 0.00 0.00 85 1015.0
20180222212524 71 246 0.0 0.0 0.00 0.00 0.00 85 1014.9
20180222212023 71 246 0.0 0.0 0.00 0.00 0.00 85 1015.0
20180222211523 71 246 0.0 0.0 0.00 0.00 0.00 85 1015.0
20180222211023 71 246 0.0 0.0 0.00 0.00 0.00 84 1015.0
20180222210523 71 246 0.0 0.0 0.00 0.00 0.00 84 1015.1
20180222210024 71 246 0.0 0.0 0.00 0.00 0.00 83 1015.0
20180222205524 71 246 0.0 0.0 0.00 0.00 0.00 83 1015.1
20180222205024 71 246 0.0 0.0 0.00 0.00 0.00 83 1015.1
20180222204524 71 246 0.0 0.0 0.00 0.00 0.00 83 1015.1
20180222204024 71 246 0.0 0.0 0.00 0.00 0.00 84 1015.1
20180222203523 71 246 0.0 0.0 0.00 0.00 0.00 84 1015.0
20180222203024 71 246 0.0 0.0 0.00 0.00 0.00 84 1014.9
20180222202523 71 246 0.0 0.0 0.00 0.00 0.00 85 1014.9
20180222202023 71 246 0.0 0.0 0.00 0.00 0.00 86 1015.0
20180222201523 71 246 0.0 0.0 0.00 0.00 0.00 85 1015.1
20180222201023 70 246 0.0 0.0 0.00 0.00 0.00 85 1015.0
20180222200523 70 246 0.0 0.0 0.00 0.00 0.00 86 1015.0
20180222200025 70 246 0.0 0.0 0.00 0.00 0.00 86 1015.0
20180222195524 70 246 0.0 0.0 0.00 0.00 0.00 86 1015.0
20180222195024 70 246 0.0 0.0 0.00 0.00 0.00 86 1015.0
20180222194524 70 246 0.0 0.0 0.00 0.00 0.00 87 1015.0
20180222194024 69 246 0.0 0.0 0.00 0.00 0.00 87 1015.0
20180222193523 69 246 0.0 0.0 0.00 0.00 0.00 87 1015.0
20180222193023 69 246 0.0 0.0 0.00 0.00 0.00 88 1015.0
20180222192523 69 246 0.0 0.0 0.00 0.00 0.00 88 1014.9
20180222192025 69 246 0.0 0.0 0.00 0.00 0.00 87 1014.9
20180222191524 68 246 0.0 0.0 0.00 0.00 0.00 88 1015.0
20180222191024 68 246 0.0 0.0 0.00 0.00 0.00 88 1015.0
20180222190524 68 246 0.0 0.0 0.00 0.00 0.00 88 1015.0
20180222190024 68 246 0.0 0.0 0.00 0.00 0.00 88 1014.9
20180222185523 68 246 0.0 0.0 0.00 0.00 0.00 89 1014.9
20180222185023 68 246 0.0 0.0 0.00 0.00 0.00 89 1014.9
20180222184525 68 246 0.0 0.0 0.00 0.00 0.00 91 1014.8
20180222184025 68 246 0.0 0.0 0.00 0.00 0.00 90 1014.8
20180222183525 67 246 0.0 0.0 0.00 0.00 0.00 91 1014.7
20180222183024 67 246 0.0 0.0 0.00 0.00 0.00 91 1014.7
20180222182524 67 246 0.0 0.0 0.00 0.00 0.00 92 1014.8
20180222182024 66 246 0.0 0.0 0.00 0.00 0.00 92 1014.8
20180222181524 66 246 0.0 0.0 0.00 0.00 0.00 92 1014.7
20180222181023 66 246 0.0 0.0 0.00 0.00 0.00 92 1014.6
20180222180525 65 246 0.0 0.0 0.00 0.00 0.00 92 1014.7
20180222180025 65 246 0.0 0.0 0.00 0.00 0.00 92 1014.6
20180222175524 64 246 0.0 0.0 0.00 0.00 0.00 91 1014.7
20180222175024 64 246 0.0 0.0 0.00 0.00 0.00 91 1014.6
20180222174524 64 246 0.0 0.0 0.00 0.00 0.00 91 1014.6
20180222174024 64 246 0.0 0.0 0.00 0.00 0.00 90 1014.5
20180222173523 64 246 0.0 0.0 0.00 0.00 0.00 91 1014.5
20180222173024 63 246 0.0 0.0 0.00 0.00 0.00 90 1014.4
20180222172523 63 246 0.0 0.0 0.00 0.00 0.00 90 1014.4
20180222172025 63 246 0.0 0.0 0.00 0.00 0.00 91 1014.4
20180222171525 63 246 0.0 0.0 0.00 0.00 0.00 90 1014.2
20180222171024 62 246 0.0 0.0 0.00 0.00 0.00 90 1014.1
20180222170524 62 246 0.0 0.0 0.00 0.00 0.00 90 1014.1
20180222170024 62 246 0.0 0.0 0.00 0.00 0.00 90 1014.0
20180222165523 62 246 0.0 0.0 0.00 0.00 0.00 90 1014.0
20180222165023 62 246 0.0 0.0 0.00 0.00 0.00 90 1013.9
20180222164525 62 246 0.0 0.0 0.00 0.00 0.00 90 1013.9
20180222164025 62 246 0.0 0.0 0.00 0.00 0.00 91 1013.9
20180222163525 62 246 0.0 0.0 0.00 0.00 0.00 91 1013.8
20180222163025 62 246 0.0 0.0 0.00 0.00 0.00 91 1013.8
20180222162524 62 246 0.0 0.0 0.00 0.00 0.00 92 1013.7
20180222162024 62 246 0.0 0.0 0.00 0.00 0.00 92 1013.6
20180222161524 62 246 0.0 0.0 0.00 0.00 0.00 92 1013.6
20180222161024 62 246 0.0 0.0 0.00 0.00 0.00 92 1013.5
20180222160523 62 246 0.0 0.0 0.00 0.00 0.00 92 1013.5
20180222160023 62 246 0.0 0.0 0.00 0.00 0.00 92 1013.5
20180222155525 62 246 0.0 0.0 0.00 0.00 0.00 91 1013.4
20180222155024 62 246 0.0 0.0 0.00 0.00 0.00 91 1013.4
20180222154524 62 246 0.0 0.0 0.00 0.00 0.00 91 1013.4
20180222154024 62 246 0.0 0.0 0.00 0.00 0.00 91 1013.4
20180222153524 62 246 0.0 0.0 0.00 0.00 0.00 91 1013.4
20180222153023 62 246 0.0 0.0 0.00 0.00 0.00 91 1013.3
20180222152525 62 246 0.0 0.0 0.00 0.00 0.00 91 1013.2
20180222152025 62 246 0.0 0.0 0.00 0.00 0.00 91 1013.1
20180222151525 62 246 0.0 0.0 0.00 0.00 0.00 91 1013.1
20180222151025 62 246 0.0 0.0 0.00 0.00 0.00 91 1013.1
20180222150525 62 246 0.0 0.0 0.00 0.00 0.00 91 1013.0
20180222150025 62 246 0.0 0.0 0.00 0.00 0.00 90 1013.0
20180222145524 62 246 0.0 0.0 0.00 0.00 0.00 90 1013.0
20180222145024 62 246 0.0 0.0 0.00 0.00 0.00 90 1013.0
20180222144524 62 246 0.0 0.0 0.00 0.00 0.00 91 1013.1
20180222144024 62 246 0.0 0.0 0.00 0.00 0.00 90 1013.0
20180222143524 62 246 0.0 0.0 0.00 0.00 0.00 90 1012.9
20180222143024 63 246 0.0 0.0 0.00 0.00 0.00 90 1012.9
20180222142526 63 246 0.0 0.0 0.00 0.00 0.00 90 1012.9
20180222142025 63 246 0.0 0.0 0.00 0.00 0.00 90 1013.0
20180222141525 63 246 0.0 0.0 0.00 0.00 0.00 90 1013.0
20180222141025 63 246 0.0 0.0 0.00 0.00 0.00 90 1013.0
20180222140524 63 246 0.0 0.0 0.00 0.00 0.00 90 1013.0
20180222140025 63 246 0.0 0.0 0.00 0.00 0.00 90 1012.9
20180222135524 63 246 0.0 0.0 0.00 0.00 0.00 90 1012.8
20180222135025 63 246 0.0 0.0 0.00 0.00 0.00 90 1012.8
20180222134524 63 246 0.0 0.0 0.00 0.00 0.00 90 1013.0
20180222134024 63 246 0.0 0.0 0.00 0.00 0.00 90 1012.9
20180222133524 63 246 0.0 0.0 0.00 0.00 0.00 90 1013.0
20180222133024 63 246 0.0 0.0 0.00 0.00 0.00 90 1013.0
20180222132524 63 246 0.0 0.0 0.00 0.00 0.00 90 1013.0
20180222132023 63 246 0.0 0.0 0.00 0.00 0.00 90 1013.0
20180222131525 63 246 0.0 0.0 0.00 0.00 0.00 90 1013.1
20180222131025 63 246 0.0 0.0 0.00 0.00 0.00 91 1013.1
20180222130525 63 246 0.0 0.0 0.00 0.00 0.00 90 1013.2
20180222130024 63 246 0.0 0.0 0.00 0.00 0.00 91 1013.2
20180222125524 63 246 0.0 0.0 0.00 0.00 0.00 91 1013.2
20180222125024 63 246 0.0 0.0 0.00 0.00 0.00 91 1013.3
20180222124525 63 246 0.0 0.0 0.00 0.00 0.00 90 1013.5
20180222124024 63 246 0.0 0.0 0.00 0.00 0.00 90 1013.5
20180222123524 63 246 0.0 0.0 0.00 0.00 0.00 90 1013.5
20180222123024 63 246 0.0 0.0 0.00 0.00 0.00 90 1013.6
20180222122524 64 246 0.0 0.0 0.00 0.00 0.00 90 1013.7
20180222122024 64 246 0.0 0.0 0.00 0.00 0.00 91 1013.8
20180222121524 64 246 0.0 0.0 0.00 0.00 0.00 91 1013.9
20180222121025 64 246 0.0 0.0 0.00 0.00 0.00 91 1013.9
20180222120525 64 246 0.0 0.0 0.00 0.00 0.00 91 1014.0
20180222120025 64 246 0.0 0.0 0.00 0.00 0.00 91 1014.0
20180222115525 64 246 0.0 0.0 0.00 0.00 0.00 91 1014.1
20180222115024 64 246 0.0 0.0 0.00 0.00 0.00 90 1014.1
20180222114524 64 246 0.0 0.0 0.00 0.00 0.00 90 1014.0
20180222114024 64 246 0.0 0.0 0.00 0.00 0.00 89 1014.1
20180222113524 64 246 0.0 0.0 0.00 0.00 0.00 89 1014.1
20180222113024 64 246 0.0 0.0 0.00 0.00 0.00 90 1014.1
20180222112525 64 246 0.0 0.0 0.00 0.00 0.00 90 1014.2
20180222112025 64 246 0.0 0.0 0.00 0.00 0.00 90 1014.2
20180222111525 64 246 0.0 0.0 0.00 0.00 0.00 90 1014.2
20180222111025 64 246 0.0 0.0 0.00 0.00 0.00 90 1014.3
20180222110525 64 246 0.0 0.0 0.00 0.00 0.00 90 1014.3
20180222110025 64 246 0.0 0.0 0.00 0.00 0.00 90 1014.3
20180222105524 64 246 0.0 0.0 0.00 0.00 0.00 90 1014.4
20180222105024 64 246 0.0 0.0 0.00 0.00 0.00 91 1014.5
20180222104524 64 246 0.0 0.0 0.00 0.00 0.00 91 1014.6
20180222104024 64 246 0.0 0.0 0.00 0.00 0.00 91 1014.6
20180222103526 64 246 0.0 0.0 0.00 0.00 0.00 91 1014.6
20180222103024 63 246 0.0 0.0 0.00 0.00 0.00 91 1014.7
20180222102524 63 246 0.0 0.0 0.00 0.00 0.00 91 1014.7
20180222102024 63 246 0.0 0.0 0.00 0.00 0.00 91 1014.7
20180222101524 63 246 0.0 0.0 0.00 0.00 0.00 91 1014.6
20180222101025 63 246 0.0 0.0 0.00 0.00 0.00 91 1014.7
20180222100525 64 246 0.0 0.0 0.00 0.00 0.00 91 1014.7
20180222100025 64 246 0.0 0.0 0.00 0.00 0.00 91 1014.7
20180222095525 64 246 0.0 0.0 0.00 0.00 0.00 90 1014.7
20180222095024 64 246 0.0 0.0 0.00 0.00 0.00 90 1014.7
20180222094524 64 246 0.0 0.0 0.00 0.00 0.00 90 1014.7
20180222094024 64 246 0.0 0.0 0.00 0.00 0.00 90 1014.7
20180222093526 64 246 0.0 0.0 0.00 0.00 0.00 90 1014.8
20180222093026 64 246 0.0 0.0 0.00 0.00 0.00 90 1014.9
20180222092525 64 246 0.0 0.0 0.00 0.00 0.00 90 1014.9
20180222092025 65 246 0.0 0.0 0.00 0.00 0.00 90 1014.8
20180222091529 65 246 0.0 0.0 0.00 0.00 0.00 90 1015.0
20180222091025 65 246 0.0 0.0 0.00 0.00 0.00 90 1015.1
20180222090525 65 246 0.0 0.0 0.00 0.00 0.00 90 1015.1
20180222090025 65 246 0.0 0.0 0.00 0.00 0.00 90 1015.2
20180222085524 65 246 0.0 0.0 0.00 0.00 0.00 90 1015.2
20180222085024 65 246 0.0 0.0 0.00 0.00 0.00 90 1015.2
20180222084526 65 246 0.0 0.0 0.00 0.00 0.00 90 1015.2
20180222084027 65 246 0.0 0.0 0.00 0.00 0.00 90 1015.2
20180222083526 65 246 0.0 0.0 0.00 0.00 0.00 90 1015.1
20180222083025 65 246 0.0 0.0 0.00 0.00 0.00 90 1015.1
20180222082525 65 246 0.0 0.0 0.00 0.00 0.00 90 1015.2
20180222082025 66 246 0.0 0.0 0.00 0.00 0.00 90 1015.1
20180222081525 66 246 0.0 0.0 0.00 0.00 0.00 90 1015.0
20180222081026 66 246 0.0 0.0 0.00 0.00 0.00 90 1015.1
20180222080526 66 246 0.0 0.0 0.00 0.00 0.00 90 1015.2
20180222080025 66 246 0.0 0.0 0.00 0.00 0.00 90 1015.1
20180222075526 66 246 0.0 0.0 0.00 0.00 0.00 89 1015.0
20180222075025 66 246 0.0 0.0 0.00 0.00 0.00 89 1014.9
20180222074525 66 246 0.0 0.0 0.00 0.00 0.00 89 1014.9
20180222074025 66 246 0.0 0.0 0.00 0.00 0.00 89 1014.9
20180222073524 66 246 0.0 0.0 0.00 0.00 0.00 89 1014.8
20180222073026 67 246 0.0 0.0 0.00 0.00 0.00 89 1014.9
20180222072526 67 246 0.0 0.0 0.00 0.00 0.00 89 1014.9
20180222072025 67 246 0.0 0.0 0.00 0.00 0.00 89 1014.8
20180222071525 67 246 0.0 0.0 0.00 0.00 0.00 89 1014.8
20180222071024 67 246 0.0 0.0 0.00 0.00 0.00 89 1014.8
20180222070525 67 246 0.0 0.0 0.00 0.00 0.00 89 1014.9
20180222070026 67 246 0.0 0.0 0.00 0.00 0.00 89 1015.0
20180222065526 67 246 0.0 0.0 0.00 0.00 0.00 89 1014.9
20180222065025 67 246 0.0 0.0 0.00 0.00 0.00 89 1014.9
20180222064526 68 246 0.0 0.0 0.00 0.00 0.00 89 1014.7
20180222064025 68 246 0.0 0.0 0.00 0.00 0.00 88 1014.8
20180222063525 68 246 0.0 0.0 0.00 0.00 0.00 87 1014.9
20180222063025 68 246 0.0 0.0 0.00 0.00 0.00 87 1014.9
20180222062526 68 246 0.0 0.0 0.00 0.00 0.00 87 1014.7
20180222062026 69 246 0.0 0.0 0.00 0.00 0.00 87 1014.6
20180222061525 69 246 0.0 0.0 0.00 0.00 0.00 86 1014.6
20180222061025 69 246 0.0 0.0 0.00 0.00 0.00 86 1014.6
20180222060525 69 246 0.0 0.0 0.00 0.00 0.00 86 1014.5
20180222060025 69 246 0.0 0.0 0.00 0.00 0.00 86 1014.5
20180222055526 69 246 0.0 0.0 0.00 0.00 0.00 86 1014.5
20180222055026 70 246 0.0 0.0 0.00 0.00 0.00 86 1014.6
20180222054526 70 246 0.0 0.0 0.00 0.00 0.00 86 1014.6
20180222054026 70 246 0.0 0.0 0.00 0.00 0.00 86 1014.5
20180222053525 70 246 0.0 0.0 0.00 0.00 0.00 86 1014.5
20180222053026 70 246 0.0 0.0 0.00 0.00 0.00 86 1014.4
20180222052525 70 246 0.0 0.0 0.00 0.00 0.00 86 1014.3
20180222052025 70 246 0.0 0.0 0.00 0.00 0.00 85 1014.3
20180222051525 70 246 0.0 0.0 0.00 0.00 0.00 85 1014.2
20180222051025 70 246 0.0 0.0 0.00 0.00 0.00 85 1014.0
20180222050526 71 246 0.0 0.0 0.00 0.00 0.00 85 1014.0
20180222050026 71 246 0.0 0.0 0.00 0.00 0.00 85 1014.1
20180222045525 71 246 0.0 0.0 0.00 0.00 0.00 85 1014.1
20180222045025 71 246 0.0 0.0 0.00 0.00 0.00 84 1014.0
20180222044525 71 246 0.0 0.0 0.00 0.00 0.00 83 1013.9
20180222044025 71 246 0.0 0.0 0.00 0.00 0.00 82 1013.8
20180222043525 71 246 0.0 0.0 0.00 0.00 0.00 80 1013.8
20180222043026 71 246 0.0 0.0 0.00 0.00 0.00 79 1013.7
20180222042526 72 246 0.0 0.0 0.00 0.00 0.00 79 1013.7
20180222042026 72 246 0.0 0.0 0.00 0.00 0.00 79 1013.6
20180222041526 72 246 0.0 0.0 0.00 0.00 0.00 81 1013.5
20180222041025 72 246 0.0 0.0 0.00 0.00 0.00 82 1013.4
20180222040525 72 246 0.0 0.0 0.00 0.00 0.00 80 1013.4
20180222040026 72 246 0.0 0.0 0.00 0.00 0.00 79 1013.2
20180222035525 72 246 0.0 0.0 0.00 0.00 0.00 79 1013.3
20180222035025 73 246 0.0 0.0 0.00 0.00 0.00 79 1013.3
20180222034525 73 246 0.0 0.0 0.00 0.00 0.00 79 1013.3
20180222034025 73 246 0.0 0.0 0.00 0.00 0.00 79 1013.3
20180222033525 73 246 0.0 0.0 0.00 0.00 0.00 79 1013.2
20180222033026 73 246 0.0 0.0 0.00 0.00 0.00 79 1013.1
20180222032526 73 246 0.0 0.0 0.00 0.00 0.00 79 1013.0
20180222032025 73 246 0.0 0.0 0.00 0.00 0.00 79 1012.9
20180222031527 73 246 0.0 0.0 0.00 0.00 0.00 79 1012.9
20180222031026 73 246 0.0 0.0 0.00 0.00 0.00 79 1012.9
20180222030526 73 246 0.0 0.0 0.00 0.00 0.00 78 1012.8
20180222030026 74 246 0.0 0.0 0.00 0.00 0.00 78 1012.7
20180222025525 74 246 0.0 0.0 0.00 0.00 0.00 77 1012.7
20180222025025 74 246 0.0 0.0 0.00 0.00 0.00 77 1012.7
20180222024527 74 246 0.0 0.0 0.00 0.00 0.00 77 1012.7
20180222024026 74 246 0.0 0.0 0.00 0.00 0.00 77 1012.7
20180222023526 74 246 0.0 0.0 0.00 0.00 0.00 77 1012.7
20180222023026 75 246 0.0 0.0 0.00 0.00 0.00 77 1012.7
20180222022526 75 245 0.0 0.0 0.00 0.00 0.00 76 1012.6
20180222022025 75 245 0.0 0.0 0.00 0.00 0.00 77 1012.5
20180222021525 75 245 0.0 0.0 0.00 0.00 0.00 76 1012.6
20180222021025 75 245 0.0 0.0 0.00 0.00 0.00 77 1012.6
20180222020527 75 242 0.0 0.0 0.00 0.00 0.00 76 1012.6
20180222020026 75 239 0.0 0.0 0.00 0.00 0.00 76 1012.7
20180222015526 76 238 0.0 0.0 0.00 0.00 0.00 75 1012.7
20180222015026 76 238 0.0 0.0 0.00 0.00 0.00 76 1012.5
20180222014526 76 238 0.0 0.0 0.00 0.00 0.00 76 1012.5
20180222014026 76 238 0.0 0.0 0.00 0.00 0.00 76 1012.5
20180222013525 76 239 0.0 0.0 0.00 0.00 0.00 76 1012.3
20180222013025 76 236 0.0 0.0 0.00 0.00 0.00 74 1012.4
20180222012525 76 237 0.0 0.0 0.00 0.00 0.00 74 1012.4
20180222012027 75 236 0.0 0.0 0.00 0.00 0.00 73 1012.3
20180222011525 75 227 0.0 0.0 0.00 0.00 0.00 75 1012.2
20180222011025 75 226 0.0 0.0 0.00 0.00 0.00 74 1012.3
20180222010527 75 225 2.0 5.0 0.00 0.00 0.00 76 1012.4
20180222010026 75 227 0.0 0.0 0.00 0.00 0.00 74 1012.3
20180222005526 75 227 0.0 0.0 0.00 0.00 0.00 74 1012.3
20180222005026 75 229 0.0 0.0 0.00 0.00 0.00 74 1012.2
20180222004526 75 231 1.0 0.0 0.00 0.00 0.00 74 1012.3
20180222004025 76 245 0.0 0.0 0.00 0.00 0.00 74 1012.2
20180222003525 76 258 0.0 0.0 0.00 0.00 0.00 73 1012.3
20180222003025 77 251 0.0 0.0 0.00 0.00 0.00 71 1012.2
20180222002527 77 246 0.0 0.0 0.00 0.00 0.00 70 1012.2
20180222002026 77 246 0.0 0.0 0.00 0.00 0.00 71 1012.3
20180222001526 77 245 0.0 0.0 0.00 0.00 0.00 70 1012.3
20180222001026 77 247 0.0 0.0 0.00 0.00 0.00 70 1012.4
20180222000526 77 261 0.0 0.0 0.00 0.00 0.00 71 1012.3
20180222000025 77 266 0.0 0.0 0.00 0.00 0.00 71 1012.3
20180221235526 77 277 0.0 0.0 0.00 0.00 0.00 72 1012.4
20180221235026 77 294 3.0 7.0 0.00 0.00 0.00 72 1012.4
20180221234526 77 94 0.0 0.0 0.00 0.00 0.00 70 1012.5
20180221234026 78 94 0.0 0.0 0.00 0.00 0.00 70 1012.5
20180221233526 78 96 0.0 0.0 0.00 0.00 0.00 70 1012.5
20180221233025 77 96 0.0 0.0 0.00 0.00 0.00 70 1012.6
20180221232525 77 96 0.0 0.0 0.00 0.00 0.00 72 1012.8
20180221232027 77 96 0.0 0.0 0.00 0.00 0.00 73 1012.9
20180221231527 77 96 0.0 0.0 0.00 0.00 0.00 71 1013.0
20180221231026 77 221 0.0 0.0 0.00 0.00 0.00 72 1013.1
20180221230526 77 249 0.0 0.0 0.00 0.00 0.00 69 1013.2
20180221230026 76 249 0.0 0.0 0.00 0.00 0.00 70 1013.2
20180221225525 77 249 0.0 0.0 0.00 0.00 0.00 69 1013.2
20180221225025 77 249 0.0 0.0 0.00 0.00 0.00 68 1013.3
20180221224525 77 249 0.0 0.0 0.00 0.00 0.00 69 1013.4